When you browse on this site, cookies collect data to enhance your experience and personalize the content and advertising you see.
Visit our Privacy Policy to learn more. By continuing to use the site, you agree to this use of cookies and data.
  • In Österreich
  • Länderverzeichnis
  • Für 7 Tage
  • Wassertemperatur
  • Wetterkarte
  • News
  • Widgets
  • user-avatar
    Anmelden

    Stündliche Wetter Rio Piedras

    Heute, 5 Juni, Freitag

    Zeit Temperatur Niederschläge Wind Luftdruck Luftfeuchtigkeit
    00:00 +27°C° 0 mm 4 m/S 759 mmHg 84%
    01:00 +27°C° 0 mm 4 m/S 759 mmHg 84%
    02:00 +27°C° 0 mm 4 m/S 758 mmHg 85%
    03:00 +27°C° 0 mm 4 m/S 758 mmHg 86%
    04:00 +27°C° 0 mm 4 m/S 758 mmHg 87%
    05:00 +27°C° 0 mm 4 m/S 758 mmHg 88%
    06:00 +27°C° 0.1 mm 5 m/S 759 mmHg 84%
    07:00 +28°C° 0.1 mm 5 m/S 759 mmHg 81%
    08:00 +29°C° 0.1 mm 5 m/S 760 mmHg 77%
    09:00 +30°C° 0 mm 5 m/S 760 mmHg 73%
    10:00 +32°C° 0 mm 6 m/S 760 mmHg 68%
    11:00 +33°C° 0 mm 6 m/S 760 mmHg 64%
    12:00 +33°C° 0 mm 6 m/S 760 mmHg 64%
    13:00 +33°C° 0 mm 6 m/S 759 mmHg 64%
    14:00 +33°C° 0 mm 7 m/S 759 mmHg 64%
    15:00 +33°C° 0 mm 7 m/S 758 mmHg 65%
    16:00 +32°C° 0 mm 6 m/S 758 mmHg 67%
    17:00 +32°C° 0 mm 6 m/S 758 mmHg 68%
    18:00 +30°C° 0.1 mm 6 m/S 758 mmHg 73%
    19:00 +29°C° 0.1 mm 5 m/S 758 mmHg 79%
    20:00 +28°C° 0.1 mm 5 m/S 759 mmHg 84%
    21:00 +27°C° 0.1 mm 4 m/S 759 mmHg 85%
    22:00 +27°C° 0.1 mm 4 m/S 759 mmHg 86%
    23:00 +27°C° 0.1 mm 4 m/S 759 mmHg 87%

    Morgen, 6 Juni, Samstag

    Zeit Temperatur Niederschläge Wind Luftdruck Luftfeuchtigkeit
    00:00 +27°C° 0.1 mm 3 m/S 759 mmHg 88%
    01:00 +26°C° 0.1 mm 3 m/S 758 mmHg 88%
    02:00 +26°C° 0.1 mm 3 m/S 758 mmHg 89%
    03:00 +26°C° 0.1 mm 3 m/S 758 mmHg 89%
    04:00 +26°C° 0.1 mm 3 m/S 758 mmHg 89%
    05:00 +26°C° 0.1 mm 3 m/S 758 mmHg 89%
    06:00 +27°C° 0.1 mm 3 m/S 758 mmHg 85%
    07:00 +28°C° 0.1 mm 4 m/S 759 mmHg 82%
    08:00 +29°C° 0.1 mm 4 m/S 759 mmHg 78%
    09:00 +29°C° 0.1 mm 4 m/S 759 mmHg 74%
    10:00 +30°C° 0.1 mm 5 m/S 759 mmHg 70%
    11:00 +32°C° 0.1 mm 5 m/S 759 mmHg 66%
    12:00 +32°C° 0.1 mm 6 m/S 759 mmHg 65%
    13:00 +33°C° 0.1 mm 6 m/S 759 mmHg 64%
    14:00 +33°C° 0.1 mm 6 m/S 758 mmHg 63%
    15:00 +32°C° 0 mm 6 m/S 758 mmHg 66%
    16:00 +32°C° 0 mm 6 m/S 758 mmHg 69%
    17:00 +30°C° 0 mm 6 m/S 757 mmHg 72%
    18:00 +29°C° 0.1 mm 5 m/S 757 mmHg 77%
    19:00 +28°C° 0.1 mm 5 m/S 758 mmHg 81%
    20:00 +27°C° 0.1 mm 4 m/S 758 mmHg 86%
    21:00 +27°C° 0.1 mm 4 m/S 758 mmHg 86%
    22:00 +27°C° 0.1 mm 4 m/S 758 mmHg 86%
    23:00 +27°C° 0.1 mm 4 m/S 759 mmHg 86%

    übermorgen, 7 Juni, Sonntag

    Zeit Temperatur Niederschläge Wind Luftdruck Luftfeuchtigkeit
    00:00 +27°C° 0 mm 3 m/S 758 mmHg 86%
    01:00 +26°C° 0 mm 3 m/S 758 mmHg 86%
    02:00 +26°C° 0 mm 3 m/S 758 mmHg 86%
    03:00 +26°C° 0 mm 2 m/S 758 mmHg 87%
    04:00 +26°C° 0 mm 2 m/S 758 mmHg 88%
    05:00 +26°C° 0 mm 2 m/S 758 mmHg 89%
    06:00 +27°C° 0 mm 3 m/S 758 mmHg 86%
    07:00 +28°C° 0 mm 3 m/S 758 mmHg 83%
    08:00 +29°C° 0 mm 3 m/S 759 mmHg 80%
    09:00 +30°C° 0.1 mm 4 m/S 759 mmHg 76%
    10:00 +30°C° 0.1 mm 4 m/S 759 mmHg 71%
    11:00 +32°C° 0.1 mm 4 m/S 759 mmHg 67%
    12:00 +33°C° 0.1 mm 5 m/S 759 mmHg 66%
    13:00 +33°C° 0.1 mm 5 m/S 758 mmHg 64%
    14:00 +33°C° 0.1 mm 5 m/S 758 mmHg 63%
    15:00 +33°C° 0.2 mm 5 m/S 757 mmHg 66%
    16:00 +32°C° 0.2 mm 5 m/S 757 mmHg 69%
    17:00 +32°C° 0.2 mm 5 m/S 757 mmHg 72%
    18:00 +29°C° 0.3 mm 4 m/S 757 mmHg 77%
    19:00 +28°C° 0.3 mm 4 m/S 757 mmHg 81%
    20:00 +27°C° 0.3 mm 3 m/S 757 mmHg 86%
    21:00 +27°C° 0.1 mm 3 m/S 758 mmHg 87%
    22:00 +27°C° 0.1 mm 3 m/S 758 mmHg 88%
    23:00 +27°C° 0.1 mm 3 m/S 758 mmHg 89%

    8 Juni, Montag

    Zeit Temperatur Niederschläge Wind Luftdruck Luftfeuchtigkeit
    00:00 +27°C° 0 mm 3 m/S 758 mmHg 89%
    01:00 +26°C° 0 mm 2 m/S 757 mmHg 89%
    02:00 +26°C° 0 mm 2 m/S 757 mmHg 89%
    03:00 +26°C° 0 mm 2 m/S 757 mmHg 89%
    04:00 +26°C° 0 mm 2 m/S 757 mmHg 90%
    05:00 +26°C° 0 mm 2 m/S 757 mmHg 90%
    06:00 +27°C° 0 mm 2 m/S 757 mmHg 86%
    07:00 +28°C° 0 mm 2 m/S 757 mmHg 82%
    08:00 +29°C° 0 mm 2 m/S 758 mmHg 78%
    09:00 +30°C° 0 mm 2 m/S 758 mmHg 72%
    10:00 +31°C° 0 mm 3 m/S 758 mmHg 67%
    11:00 +33°C° 0 mm 3 m/S 758 mmHg 62%
    12:00 +33°C° 0.6 mm 3 m/S 758 mmHg 62%
    13:00 +33°C° 0.6 mm 4 m/S 757 mmHg 63%
    14:00 +33°C° 0.6 mm 4 m/S 757 mmHg 64%
    15:00 +32°C° 1.4 mm 4 m/S 757 mmHg 67%
    16:00 +31°C° 1.4 mm 3 m/S 756 mmHg 70%
    17:00 +30°C° 1.4 mm 3 m/S 756 mmHg 74%
    18:00 +29°C° 1.5 mm 3 m/S 756 mmHg 77%
    19:00 +28°C° 1.5 mm 3 m/S 756 mmHg 80%
    20:00 +28°C° 1.5 mm 2 m/S 757 mmHg 83%
    21:00 +27°C° 0.3 mm 2 m/S 757 mmHg 84%
    22:00 +27°C° 0.3 mm 2 m/S 757 mmHg 85%
    23:00 +27°C° 0.3 mm 2 m/S 757 mmHg 86%

    9 Juni, Dienstag

    Zeit Temperatur Niederschläge Wind Luftdruck Luftfeuchtigkeit
    00:00 +27°C° 0 mm 2 m/S 756 mmHg 86%
    01:00 +27°C° 0 mm 2 m/S 756 mmHg 86%
    02:00 +26°C° 0 mm 2 m/S 755 mmHg 86%
    03:00 +26°C° 0.1 mm 1 m/S 755 mmHg 86%
    04:00 +26°C° 0.1 mm 1 m/S 755 mmHg 86%
    05:00 +26°C° 0.1 mm 1 m/S 755 mmHg 86%
    06:00 +27°C° 0.1 mm 1 m/S 756 mmHg 84%
    07:00 +27°C° 0.1 mm 1 m/S 756 mmHg 81%
    08:00 +26°C° 0.1 mm 0 m/S 756 mmHg 78%
    09:00 +29°C° 0.2 mm 1 m/S 757 mmHg 74%
    10:00 +30°C° 0.2 mm 1 m/S 757 mmHg 70%
    11:00 +31°C° 0.2 mm 2 m/S 757 mmHg 66%
    12:00 +31°C° 0.8 mm 2 m/S 757 mmHg 66%
    13:00 +31°C° 0.8 mm 2 m/S 756 mmHg 67%
    14:00 +31°C° 0.8 mm 2 m/S 756 mmHg 67%
    15:00 +31°C° 1 mm 2 m/S 755 mmHg 69%
    16:00 +30°C° 1 mm 2 m/S 755 mmHg 70%
    17:00 +30°C° 1 mm 2 m/S 755 mmHg 72%
    18:00 +29°C° 0.2 mm 2 m/S 755 mmHg 74%
    19:00 +28°C° 0.2 mm 2 m/S 755 mmHg 77%
    20:00 +27°C° 0.2 mm 2 m/S 755 mmHg 80%
    21:00 +27°C° 0 mm 2 m/S 756 mmHg 81%
    22:00 +27°C° 0 mm 2 m/S 756 mmHg 81%
    23:00 +27°C° 0 mm 2 m/S 756 mmHg 82%

    10 Juni, Mittwoch

    Zeit Temperatur Niederschläge Wind Luftdruck Luftfeuchtigkeit
    00:00 +26°C° 0.1 mm 2 m/S 756 mmHg 83%
    01:00 +26°C° 0.1 mm 1 m/S 755 mmHg 84%
    02:00 +26°C° 0.1 mm 1 m/S 755 mmHg 85%
    03:00 +26°C° 0.1 mm 1 m/S 755 mmHg 86%
    04:00 +26°C° 0.1 mm 1 m/S 755 mmHg 86%
    05:00 +26°C° 0.1 mm 1 m/S 755 mmHg 86%
    06:00 +27°C° 0.1 mm 1 m/S 755 mmHg 84%
    07:00 +27°C° 0.1 mm 1 m/S 755 mmHg 82%
    08:00 +28°C° 0.1 mm 1 m/S 756 mmHg 80%
    09:00 +29°C° 0.2 mm 2 m/S 756 mmHg 75%
    10:00 +30°C° 0.2 mm 2 m/S 756 mmHg 71%
    11:00 +31°C° 0.2 mm 2 m/S 756 mmHg 66%
    12:00 +31°C° 0.1 mm 3 m/S 756 mmHg 65%
    13:00 +31°C° 0.1 mm 3 m/S 756 mmHg 65%
    14:00 +31°C° 0.1 mm 3 m/S 755 mmHg 64%
    15:00 +32°C° 0 mm 4 m/S 755 mmHg 67%
    16:00 +30°C° 0 mm 4 m/S 755 mmHg 70%
    17:00 +30°C° 0 mm 4 m/S 755 mmHg 73%
    18:00 +29°C° 0 mm 4 m/S 755 mmHg 76%
    19:00 +29°C° 0 mm 4 m/S 755 mmHg 80%
    20:00 +28°C° 0 mm 3 m/S 756 mmHg 83%
    21:00 +27°C° 0 mm 3 m/S 756 mmHg 85%
    22:00 +27°C° 0 mm 3 m/S 756 mmHg 86%
    23:00 +27°C° 0 mm 3 m/S 757 mmHg 87%
    Mehr zeigen